Location: Brno
(49.2000°N, 16.6330°E)
Time: 07:14:37
(UTC+01:00)

Cosmos 2227 - Visible Passes

Search period start: 14 December 2017 00:00
Search period end: 24 December 2017 00:00
Orbit: 833 x 863 km, 71.0° (Epoch: 11 December)

Date Brightness Start Highest point End Pass type
(mag) Time Alt. Az. Time Alt. Az. Time Alt. Az.
14 Dec 5.2 17:33:04 10° NNW 17:37:47 25° NE 17:38:50 24° ENE visible
14 Dec 5.0 19:16:51 10° NNW 19:20:49 45° NW 19:20:49 45° NW visible
15 Dec 5.3 17:19:57 10° NNW 17:24:39 25° NE 17:26:47 20° ENE visible
15 Dec 4.4 19:03:43 10° NNW 19:08:47 67° NW 19:08:47 67° NW visible
15 Dec 7.0 20:49:56 10° WNW 20:50:47 12° WNW 20:50:47 12° WNW visible
16 Dec 5.3 17:06:49 10° NNW 17:11:28 24° NE 17:14:59 14° E visible
16 Dec 4.2 18:50:35 10° NNW 18:56:23 81° WSW 18:57:01 70° S visible
16 Dec 6.9 20:36:44 10° WNW 20:39:03 14° W 20:39:03 14° W visible
17 Dec 5.3 16:53:41 10° NNW 16:58:20 24° NE 17:02:56 10° E visible
17 Dec 4.2 18:37:27 10° NNW 18:43:14 82° WSW 18:45:43 36° SSE visible
17 Dec 6.8 20:23:32 10° WNW 20:26:29 14° W 20:27:47 13° WSW visible
18 Dec 5.3 16:40:33 10° NNW 16:45:10 24° NE 16:49:45 10° E visible
18 Dec 4.2 18:24:19 10° NNW 18:30:05 83° WSW 18:35:26 12° SSE visible
18 Dec 6.9 20:10:21 10° WNW 20:13:22 15° W 20:16:23 10° SW visible
19 Dec 5.3 16:27:25 10° NNW 16:32:01 24° NE 16:36:34 10° E visible
19 Dec 4.2 18:11:10 10° NNW 18:16:57 84° WSW 18:22:40 10° SSE visible
19 Dec 6.9 19:57:09 10° WNW 20:00:14 15° W 20:03:18 10° SW visible
20 Dec 4.2 17:58:01 10° NNW 18:03:49 85° WSW 18:09:31 10° SSE visible
20 Dec 6.9 19:43:57 10° WNW 19:47:07 15° W 19:50:15 10° SW visible
21 Dec 4.2 17:44:52 10° NNW 17:50:40 86° WSW 17:56:23 10° SSE visible
21 Dec 7.0 19:30:46 10° WNW 19:33:59 15° W 19:37:10 10° SW visible
22 Dec 7.1 07:00:06 10° SE 07:03:31 16° E 07:06:58 10° ENE visible
22 Dec 4.2 17:31:43 10° NNW 17:37:31 87° WSW 17:43:14 10° SSE visible
22 Dec 7.0 19:17:35 10° WNW 19:20:51 16° W 19:24:07 10° SW visible
23 Dec 7.2 06:47:01 10° SE 06:50:24 16° E 06:53:46 10° ENE visible
23 Dec 4.2 17:18:35 10° NNW 17:24:23 89° SW 17:30:05 10° SSE visible
23 Dec 7.0 19:04:23 10° WNW 19:07:43 16° W 19:11:02 10° SW visible
